Volver al catálogo

STARLINK-32493

ActivoComunicacionesVLEO
NORAD 62025·PAYLOAD·🇺🇸 United States

Lanzado Nov 18, 2024 desde Vandenberg Space Force Base

Loading…

Próximos Pases (próximas 24 horas)

TLE

ActualizadoSource: CelesTrak SupGP

Época: Sep 14, 2026, 15:08 UTC

1 62025C 24213T   26257.63104167 -.00053651  00000+0 -15855-2 0  2571
2 62025  53.1606   7.0104 0001288  76.3268 225.1671 15.34409426    14

Sigue STARLINK-32493 en tiempo real con AllMySat

Download on the App Store